Location: Balaclava NSW 2575, Australia
(34.4510°S, 150.4953°E)
Time: 12:53:19
(UTC+10:00)

XW-2C - Pass Details

Date: 06 August 2021
Orbit: 506 x 524 km, 97.5° (Epoch: 18 September)

Event Time Altitude Azimuth Distance (km) Brightness Sun altitude
Rises 05:02:17 0° 19° (NNE) 2,648 ? -21.9°
Reaches altitude 10° 05:04:23 10° 21° (NNE) 1,768 ? -21.5°
Maximum altitude 05:08:10 67° 104° (ESE) 579 ? -20.7°
Drops below altitude 10° 05:12:01 10° 186° (S) 1,790 ? -19.9°
Enters shadow 05:12:10 - 186° (S) 1,853 ? -19.9°
